CZ-6A DEB, 55522

Orbit data source: Space-Track

CZ-6A DEB, 55522 is space debris in SSO originally from a launch on Fri, 11 Nov 2022 UTC launched from the Taiyaun Space Center, China (TSC). Debris objects in space refer to the collection of defunct objects orbiting the Earth. Examples of debris include non-operational satellites, rocket bodies, and fragments generated from explosions, collisions, or faulty payload assembly.

Loading next visibility...
Identifier
55522, 2022-151XU
Orbit
SSO
Country
Flag of CNCN / PRC
Related business
Manufacturer
SAST
Mission
Spacecraft
Bus & Motor
Unknown
Mass
Unknown
Launch date (UTC)
2022-11-11 (3 years ago)
Launch vehicle
Unknown
Launch site
Taiyaun Space Center, China (TSC)
Object type
Payload
Rocket body
Debris
Shape & HBR
Unknown shape, 0.1 m
Radar Cross Section
Small (<0.1 m²)

Expand to show TLE details & history
Last TLE update: 2 days ago

TLE from 2 days ago
0 CZ-6A DEB
1 55522U 22151XU  25348.11237219  .00012627  00000-0  24570-2 0  9996
2 55522  98.6189  29.5534 0074457 160.0968 200.3163 14.61452401157553
Epoch: 2025-12-14T02:41Z
TLE epoch observation values (Epoch: 2025-12-14T02:41:48.957Z)
Latitude
-0.00005°
Longitude
-93.93054°
Altitude
740.862 km
Speed
7.458 km/s
True Right ascension
01h 58m 12s
True Declination
0° 00' 00"
Sunlit
Object was in full shadow at epoch
Visualization orbit readout
Latitude
Unknown
Longitude
Unknown
Altitude
Unknown
Speed
Unknown
Apparent Right ascension
Unknown
Apparent Declination
Unknown
Sunlit
N/A
Visualization observer readout
Local Sidereal Time
17:04:16
Azimuth
Unknown
Elevation
Unknown
Doppler factor
Unknown
Orbital elements
Apogee altitude
738.181 km
Perigee altitude
632.993 km
Semi-major axis
7,063.724 km
Eccentricity
0.00745
Inclination
98.6189°
RAAN
29.5534°
Arg. of periapsis
160.0968°
True anomaly
200.02263°
Mean anomaly
200.3163°
Eccentric anomaly
200.16921°
Mean motion
3.65589 °/min
Orbital period
98.47 mins
BSTAR
0.002457
Loading maneuver chart data...
Computing Atmospheric mass density...
Loading historical data...
Loading historical data...
Loading historical data...
Loading historical data...
Loading historical data...
Loading historical data...
Loading historical data...

Documentation

Showing up to 5 results
|